Time,TemperatureF,DewpointF,PressureIn,WindDirection,WindDirectionDegrees,WindSpeedMPH,WindSpeedGustMPH,Humidity,HourlyPrecipIn,Conditions,Clouds,dailyrainin,SolarRadiationWatts/m^2,SoftwareType,DateUTC
2013-03-20 00:02:00,22.7,15.4,30.40,NNW,329,0.0,1.0,73,0.00,,---,0.00,0.00,VWS V14.00,2013-03-20 05:02:00,
2013-03-20 00:07:00,22.6,15.3,30.40,NW,314,6.0,6.0,73,0.00,,---,0.00,0.00,VWS V14.00,2013-03-20 05:07:00,
2013-03-20 00:12:00,22.4,15.1,30.41,NNW,338,0.0,1.0,73,0.00,,---,0.00,0.00,VWS V14.00,2013-03-20 05:12:00,
2013-03-20 00:17:00,22.3,15.0,30.42,NNW,330,1.0,1.0,73,0.00,,---,0.00,0.00,VWS V14.00,2013-03-20 05:17:00,
2013-03-20 00:22:00,22.2,14.9,30.41,NNW,341,0.0,17.0,73,0.00,,---,0.00,0.00,VWS V14.00,2013-03-20 05:22:00,
2013-03-20 00:27:00,22.1,14.8,30.41,NNW,338,0.0,0.0,73,0.00,,---,0.00,0.00,VWS V14.00,2013-03-20 05:27:00,
2013-03-20 00:32:00,22.0,14.7,30.41,NNW,333,0.0,0.0,73,0.00,,---,0.00,0.00,VWS V14.00,2013-03-20 05:32:00,
2013-03-20 00:37:00,22.0,15.0,30.42,NNW,331,0.0,2.0,74,0.00,,---,0.00,0.00,VWS V14.00,2013-03-20 05:37:00,
2013-03-20 00:42:00,21.9,14.9,30.41,NNW,329,0.0,1.0,74,0.00,,---,0.00,0.00,VWS V14.00,2013-03-20 05:42:00,
2013-03-20 00:47:00,21.7,14.7,30.41,NW,323,0.0,1.0,74,0.00,,---,0.00,0.00,VWS V14.00,2013-03-20 05:47:00,
2013-03-20 00:52:00,21.7,15.0,30.41,NNW,333,1.0,1.0,75,0.00,,---,0.00,0.00,VWS V14.00,2013-03-20 05:52:00,
2013-03-20 00:57:00,21.6,14.9,30.41,NNW,335,1.0,1.0,75,0.00,,---,0.00,0.00,VWS V14.00,2013-03-20 05:57:00,
2013-03-20 01:02:00,21.6,14.9,30.41,NNW,335,1.0,1.0,75,0.00,,---,0.00,0.00,VWS V14.00,2013-03-20 06:02:00,
2013-03-20 01:08:00,21.5,15.1,30.42,NNW,332,0.0,1.0,76,0.00,,---,0.00,0.00,VWS V14.00,2013-03-20 06:08:00,
2013-03-20 01:13:00,21.4,15.0,30.41,NNW,341,0.0,1.0,76,0.00,,---,0.00,0.00,VWS V14.00,2013-03-20 06:13:00,
2013-03-20 01:18:00,21.3,14.9,30.42,NNW,341,0.0,2.0,76,0.00,,---,0.00,0.00,VWS V14.00,2013-03-20 06:18:00,
2013-03-20 01:23:00,21.2,15.1,30.42,NNW,342,0.0,1.0,77,0.00,,---,0.00,0.00,VWS V14.00,2013-03-20 06:23:00,
2013-03-20 01:28:00,21.2,15.1,30.42,NNW,343,0.0,2.0,77,0.00,,---,0.00,0.00,VWS V14.00,2013-03-20 06:28:00,
2013-03-20 01:33:00,21.1,15.0,30.42,NW,322,0.0,2.0,77,0.00,,---,0.00,0.00,VWS V14.00,2013-03-20 06:33:00,
2013-03-20 01:38:00,21.0,14.9,30.42,NNW,332,1.0,3.0,77,0.00,,---,0.00,0.00,VWS V14.00,2013-03-20 06:38:00,
2013-03-20 01:43:00,20.9,14.8,30.41,NW,325,0.0,2.0,77,0.00,,---,0.00,0.00,VWS V14.00,2013-03-20 06:43:00,
2013-03-20 01:48:00,20.8,14.4,30.41,NNW,337,0.0,1.0,76,0.00,,---,0.00,0.00,VWS V14.00,2013-03-20 06:48:00,
2013-03-20 01:53:00,20.7,14.4,30.42,NNW,327,0.0,1.0,76,0.00,,---,0.00,0.00,VWS V14.00,2013-03-20 06:53:00,
2013-03-20 01:58:00,20.6,14.2,30.42,NNW,331,0.0,1.0,76,0.00,,---,0.00,0.00,VWS V14.00,2013-03-20 06:58:00,
2013-03-20 02:03:00,20.5,14.1,30.42,NNW,342,0.0,1.0,76,0.00,,---,0.00,0.00,VWS V14.00,2013-03-20 07:03:00,
2013-03-20 02:08:00,20.4,14.4,30.42,NNW,332,0.0,1.0,77,0.00,,---,0.00,0.00,VWS V14.00,2013-03-20 07:08:00,
2013-03-20 02:14:00,20.4,14.4,30.42,NW,325,1.0,2.0,77,0.00,,---,0.00,0.00,VWS V14.00,2013-03-20 07:14:00,
2013-03-20 02:19:00,20.2,14.2,30.43,NW,322,2.0,2.0,77,0.00,,---,0.00,0.00,VWS V14.00,2013-03-20 07:19:00,
2013-03-20 02:24:00,20.0,14.0,30.42,NW,307,2.0,3.0,77,0.00,,---,0.00,0.00,VWS V14.00,2013-03-20 07:24:00,
2013-03-20 02:29:00,19.9,13.6,30.42,NW,323,0.0,3.0,76,0.00,,---,0.00,0.00,VWS V14.00,2013-03-20 07:29:00,
2013-03-20 02:34:00,19.8,13.2,30.43,NNW,327,0.0,1.0,75,0.00,,---,0.00,0.00,VWS V14.00,2013-03-20 07:34:00,
2013-03-20 02:39:00,19.7,13.1,30.43,NNW,333,1.0,8.0,75,0.00,,---,0.00,0.00,VWS V14.00,2013-03-20 07:39:00,
2013-03-20 02:44:00,19.5,12.9,30.43,NNW,329,0.0,1.0,75,0.00,,---,0.00,0.00,VWS V14.00,2013-03-20 07:44:00,
2013-03-20 02:49:00,19.4,12.8,30.43,NNW,329,0.0,1.0,75,0.00,,---,0.00,0.00,VWS V14.00,2013-03-20 07:49:00,
2013-03-20 02:54:00,19.4,12.8,30.43,NW,325,1.0,2.0,75,0.00,,---,0.00,0.00,VWS V14.00,2013-03-20 07:54:00,
2013-03-20 02:59:00,19.3,12.7,30.43,NW,321,0.0,1.0,75,0.00,,---,0.00,0.00,VWS V14.00,2013-03-20 07:59:00,
2013-03-20 03:04:00,19.2,12.9,30.43,NNW,331,0.0,1.0,76,0.00,,---,0.00,0.00,VWS V14.00,2013-03-20 08:04:00,
2013-03-20 03:09:00,19.1,12.8,30.44,WNW,302,0.0,2.0,76,0.00,,---,0.00,0.00,VWS V14.00,2013-03-20 08:09:00,
2013-03-20 03:15:00,19.1,12.8,30.43,NNW,334,0.0,2.0,76,0.00,,---,0.00,0.00,VWS V14.00,2013-03-20 08:15:00,
2013-03-20 03:20:00,19.1,12.8,30.43,NW,322,0.0,11.0,76,0.00,,---,0.00,0.00,VWS V14.00,2013-03-20 08:20:00,
2013-03-20 03:25:00,19.1,12.5,30.43,NW,319,11.0,12.0,75,0.00,,---,0.00,0.00,VWS V14.00,2013-03-20 08:25:00,
2013-03-20 03:30:00,19.0,12.7,30.43,NW,310,2.0,3.0,76,0.00,,---,0.00,0.00,VWS V14.00,2013-03-20 08:30:00,
2013-03-20 03:35:00,19.0,12.7,30.43,NNW,327,1.0,4.0,76,0.00,,---,0.00,0.00,VWS V14.00,2013-03-20 08:35:00,
2013-03-20 03:40:00,18.9,12.6,30.43,NW,310,9.0,19.0,76,0.00,,---,0.00,0.00,VWS V14.00,2013-03-20 08:40:00,
2013-03-20 03:45:00,18.9,12.3,30.42,NW,320,1.0,14.0,75,0.00,,---,0.00,0.00,VWS V14.00,2013-03-20 08:45:00,
2013-03-20 03:50:00,18.8,12.2,30.43,NW,323,1.0,3.0,75,0.00,,---,0.00,0.00,VWS V14.00,2013-03-20 08:50:00,
2013-03-20 03:55:00,18.8,12.5,30.43,NW,309,0.0,1.0,76,0.00,,---,0.00,0.00,VWS V14.00,2013-03-20 08:55:00,
2013-03-20 04:00:00,18.7,12.4,30.43,West,280,1.0,4.0,76,0.00,,---,0.00,0.00,VWS V14.00,2013-03-20 09:00:00,
2013-03-20 04:05:00,18.6,12.3,30.43,NW,319,4.0,13.0,76,0.00,,---,0.00,0.00,VWS V14.00,2013-03-20 09:05:00,
2013-03-20 04:10:00,18.6,12.0,30.43,NW,320,0.0,13.0,75,0.00,,---,0.00,0.00,VWS V14.00,2013-03-20 09:10:00,
2013-03-20 04:15:00,18.5,12.2,30.42,NW,326,1.0,12.0,76,0.00,,---,0.00,0.00,VWS V14.00,2013-03-20 09:15:00,
2013-03-20 04:20:00,18.5,12.2,30.43,NW,317,0.0,13.0,76,0.00,,---,0.00,0.00,VWS V14.00,2013-03-20 09:20:00,
2013-03-20 04:25:00,18.4,12.1,30.43,NNW,327,2.0,15.0,76,0.00,,---,0.00,0.00,VWS V14.00,2013-03-20 09:25:00,
2013-03-20 04:30:00,18.4,11.8,30.43,NW,317,0.0,12.0,75,0.00,,---,0.00,0.00,VWS V14.00,2013-03-20 09:30:00,
2013-03-20 04:35:00,18.3,11.7,30.43,NW,314,1.0,3.0,75,0.00,,---,0.00,0.00,VWS V14.00,2013-03-20 09:35:00,
2013-03-20 04:40:00,18.3,12.0,30.43,NW,320,1.0,12.0,76,0.00,,---,0.00,0.00,VWS V14.00,2013-03-20 09:40:00,
2013-03-20 04:45:00,18.2,11.9,30.43,NW,304,0.0,2.0,76,0.00,,---,0.00,0.00,VWS V14.00,2013-03-20 09:45:00,
2013-03-20 04:50:00,18.1,11.8,30.43,NW,321,2.0,15.0,76,0.00,,---,0.00,0.00,VWS V14.00,2013-03-20 09:50:00,
2013-03-20 04:55:00,18.1,12.1,30.43,NW,315,0.0,2.0,77,0.00,,---,0.00,0.00,VWS V14.00,2013-03-20 09:55:00,
2013-03-20 05:00:00,18.0,12.0,30.44,NNW,329,2.0,2.0,77,0.00,,---,0.00,0.00,VWS V14.00,2013-03-20 10:00:00,
2013-03-20 05:05:00,17.9,11.9,30.44,NW,321,0.0,3.0,77,0.00,,---,0.00,0.00,VWS V14.00,2013-03-20 10:05:00,
2013-03-20 05:10:00,17.8,11.8,30.44,NW,323,0.0,1.0,77,0.00,,---,0.00,0.00,VWS V14.00,2013-03-20 10:10:00,
2013-03-20 05:15:00,17.7,12.0,30.44,NNW,345,1.0,6.0,78,0.00,,---,0.00,0.00,VWS V14.00,2013-03-20 10:15:00,
2013-03-20 05:20:00,17.7,12.0,30.44,NW,324,0.0,1.0,78,0.00,,---,0.00,0.00,VWS V14.00,2013-03-20 10:20:00,
2013-03-20 05:25:00,17.6,11.9,30.44,NW,325,0.0,0.0,78,0.00,,---,0.00,0.00,VWS V14.00,2013-03-20 10:25:00,
2013-03-20 05:30:00,17.5,11.8,30.44,NNW,335,0.0,1.0,78,0.00,,---,0.00,0.00,VWS V14.00,2013-03-20 10:30:00,
2013-03-20 05:35:00,17.3,11.6,30.44,NNW,333,0.0,1.0,78,0.00,,---,0.00,0.00,VWS V14.00,2013-03-20 10:35:00,
2013-03-20 05:40:00,17.2,11.8,30.45,NW,322,5.0,5.0,79,0.00,,---,0.00,0.00,VWS V14.00,2013-03-20 10:40:00,
2013-03-20 05:45:00,17.0,11.6,30.45,NW,323,0.0,14.0,79,0.00,,---,0.00,0.00,VWS V14.00,2013-03-20 10:45:00,
2013-03-20 05:50:00,16.9,11.5,30.45,NW,324,0.0,1.0,79,0.00,,---,0.00,0.00,VWS V14.00,2013-03-20 10:50:00,
2013-03-20 05:55:00,16.8,11.4,30.45,NW,323,0.0,2.0,79,0.00,,---,0.00,0.00,VWS V14.00,2013-03-20 10:55:00,
2013-03-20 06:00:00,16.6,11.2,30.45,NW,323,0.0,1.0,79,0.00,,---,0.00,0.00,VWS V14.00,2013-03-20 11:00:00,
2013-03-20 06:05:00,16.5,11.1,30.45,NNW,330,0.0,2.0,79,0.00,,---,0.00,0.00,VWS V14.00,2013-03-20 11:05:00,
2013-03-20 06:10:00,16.4,11.0,30.45,NNW,336,1.0,1.0,79,0.00,,---,0.00,0.00,VWS V14.00,2013-03-20 11:10:00,
2013-03-20 06:15:00,16.3,10.9,30.45,NW,323,0.0,1.0,79,0.00,,---,0.00,0.00,VWS V14.00,2013-03-20 11:15:00,
2013-03-20 06:20:00,16.2,11.1,30.44,NNW,327,0.0,1.0,80,0.00,,---,0.00,0.00,VWS V14.00,2013-03-20 11:20:00,
2013-03-20 06:25:00,16.1,11.0,30.44,NNW,327,1.0,1.0,80,0.00,,---,0.00,0.00,VWS V14.00,2013-03-20 11:25:00,
2013-03-20 06:30:00,16.0,10.9,30.45,NW,321,1.0,1.0,80,0.00,,---,0.00,0.00,VWS V14.00,2013-03-20 11:30:00,
2013-03-20 06:35:00,15.9,10.8,30.45,NW,321,1.0,2.0,80,0.00,,---,0.00,0.00,VWS V14.00,2013-03-20 11:35:00,
2013-03-20 06:40:00,15.9,10.8,30.45,NW,317,0.0,1.0,80,0.00,,---,0.00,0.00,VWS V14.00,2013-03-20 11:40:00,
2013-03-20 06:45:00,15.8,10.7,30.45,NW,316,1.0,2.0,80,0.00,,---,0.00,0.00,VWS V14.00,2013-03-20 11:45:00,
2013-03-20 06:50:00,15.8,10.7,30.45,NW,321,0.0,1.0,80,0.00,,---,0.00,0.00,VWS V14.00,2013-03-20 11:50:00,
2013-03-20 06:55:00,15.7,10.6,30.45,NW,317,0.0,2.0,80,0.00,,---,0.00,0.00,VWS V14.00,2013-03-20 11:55:00,
2013-03-20 07:00:00,15.6,10.3,30.45,WNW,301,0.0,1.0,79,0.00,,---,0.00,0.00,VWS V14.00,2013-03-20 12:00:00,
2013-03-20 07:05:00,15.6,10.3,30.45,NW,311,0.0,1.0,79,0.00,,---,0.00,0.00,VWS V14.00,2013-03-20 12:05:00,
2013-03-20 07:10:00,15.5,10.2,30.45,NW,313,1.0,2.0,79,0.00,,---,0.00,0.00,VWS V14.00,2013-03-20 12:10:00,
2013-03-20 07:15:00,15.5,10.2,30.45,NNW,332,0.0,2.0,79,0.00,,---,0.00,0.00,VWS V14.00,2013-03-20 12:15:00,
2013-03-20 07:20:00,15.4,10.1,30.45,NNW,327,0.0,1.0,79,0.00,,---,0.00,0.00,VWS V14.00,2013-03-20 12:20:00,
2013-03-20 07:25:00,15.3,10.0,30.45,NNW,332,0.0,1.0,79,0.00,,---,0.00,0.00,VWS V14.00,2013-03-20 12:25:00,
2013-03-20 07:30:00,15.3,10.0,30.45,NNW,330,0.0,1.0,79,0.00,,---,0.00,5.00,VWS V14.00,2013-03-20 12:30:00,
2013-03-20 07:35:00,15.3,9.7,30.45,NW,323,0.0,1.0,78,0.00,,---,0.00,9.00,VWS V14.00,2013-03-20 12:35:00,
2013-03-20 07:40:00,15.2,9.6,30.45,NW,318,0.0,2.0,78,0.00,,---,0.00,12.00,VWS V14.00,2013-03-20 12:40:00,
2013-03-20 07:45:00,15.1,9.5,30.46,NW,318,0.0,8.0,78,0.00,,---,0.00,14.00,VWS V14.00,2013-03-20 12:45:00,
2013-03-20 07:50:00,15.1,9.2,30.46,NW,323,5.0,9.0,77,0.00,,---,0.00,18.00,VWS V14.00,2013-03-20 12:50:00,
2013-03-20 07:55:00,15.1,8.9,30.46,NW,321,0.0,5.0,76,0.00,,---,0.00,21.00,VWS V14.00,2013-03-20 12:55:00,
2013-03-20 08:00:00,15.1,8.9,30.46,NNW,329,0.0,2.0,76,0.00,,---,0.00,25.00,VWS V14.00,2013-03-20 13:00:00,
2013-03-20 08:05:00,15.2,8.7,30.46,NNW,331,0.0,1.0,75,0.00,,---,0.00,33.00,VWS V14.00,2013-03-20 13:05:00,
2013-03-20 08:10:00,15.3,8.5,30.46,NW,320,0.0,2.0,74,0.00,,---,0.00,46.00,VWS V14.00,2013-03-20 13:10:00,
2013-03-20 08:15:00,15.4,8.6,30.45,NNW,330,0.0,1.0,74,0.00,,---,0.00,54.00,VWS V14.00,2013-03-20 13:15:00,
2013-03-20 08:20:00,15.6,8.8,30.45,NNW,329,0.0,1.0,74,0.00,,---,0.00,47.00,VWS V14.00,2013-03-20 13:20:00,
2013-03-20 08:25:00,15.8,8.4,30.45,NNW,333,0.0,1.0,72,0.00,,---,0.00,63.00,VWS V14.00,2013-03-20 13:25:00,
2013-03-20 08:30:00,16.0,8.6,30.44,North,350,0.0,1.0,72,0.00,,---,0.00,98.00,VWS V14.00,2013-03-20 13:30:00,
2013-03-20 08:35:00,16.2,8.8,30.45,NNW,334,0.0,1.0,72,0.00,,---,0.00,116.00,VWS V14.00,2013-03-20 13:35:00,
2013-03-20 08:40:00,16.3,8.6,30.45,NW,325,0.0,2.0,71,0.00,,---,0.00,127.00,VWS V14.00,2013-03-20 13:40:00,
2013-03-20 08:45:00,16.5,8.4,30.45,NW,321,9.0,9.0,70,0.00,,---,0.00,144.00,VWS V14.00,2013-03-20 13:45:00,
2013-03-20 08:50:00,16.6,8.2,30.45,NNW,332,0.0,15.0,69,0.00,,---,0.00,186.00,VWS V14.00,2013-03-20 13:50:00,
2013-03-20 08:55:00,16.8,8.4,30.45,NNW,333,0.0,2.0,69,0.00,,---,0.00,218.00,VWS V14.00,2013-03-20 13:55:00,
2013-03-20 09:00:00,17.1,8.4,30.45,NNW,328,0.0,2.0,68,0.00,,---,0.00,237.00,VWS V14.00,2013-03-20 14:00:00,
2013-03-20 09:05:00,17.5,8.8,30.45,NNW,332,0.0,1.0,68,0.00,,---,0.00,255.00,VWS V14.00,2013-03-20 14:05:00,
2013-03-20 09:10:00,17.8,8.7,30.46,NNW,336,9.0,14.0,67,0.00,,---,0.00,271.00,VWS V14.00,2013-03-20 14:10:00,
2013-03-20 09:15:00,18.0,8.6,30.45,NNW,333,0.0,9.0,66,0.00,,---,0.00,288.00,VWS V14.00,2013-03-20 14:15:00,
2013-03-20 09:20:00,18.2,8.4,30.45,NW,306,0.0,9.0,65,0.00,,---,0.00,302.00,VWS V14.00,2013-03-20 14:20:00,
2013-03-20 09:25:00,18.6,8.5,30.45,NNW,341,0.0,1.0,64,0.00,,---,0.00,318.00,VWS V14.00,2013-03-20 14:25:00,
2013-03-20 09:30:00,19.0,8.5,30.45,NW,320,0.0,3.0,63,0.00,,---,0.00,330.00,VWS V14.00,2013-03-20 14:30:00,
2013-03-20 09:35:00,19.1,8.2,30.45,North,350,0.0,1.0,62,0.00,,---,0.00,346.00,VWS V14.00,2013-03-20 14:35:00,
2013-03-20 09:40:00,19.3,8.1,30.45,NNW,342,0.0,16.0,61,0.00,,---,0.00,362.00,VWS V14.00,2013-03-20 14:40:00,
2013-03-20 09:45:00,19.3,8.1,30.44,NNW,340,0.0,3.0,61,0.00,,---,0.00,380.00,VWS V14.00,2013-03-20 14:45:00,
2013-03-20 09:50:00,19.8,8.5,30.44,NNW,333,0.0,3.0,61,0.00,,---,0.00,394.00,VWS V14.00,2013-03-20 14:50:00,
2013-03-20 09:55:00,20.3,9.0,30.45,NNW,338,0.0,1.0,61,0.00,,---,0.00,410.00,VWS V14.00,2013-03-20 14:55:00,
2013-03-20 10:00:00,20.9,9.9,30.45,NNW,329,0.0,1.0,62,0.00,,---,0.00,424.00,VWS V14.00,2013-03-20 15:00:00,
2013-03-20 10:05:00,21.2,9.5,30.44,North,349,0.0,4.0,60,0.00,,---,0.00,439.00,VWS V14.00,2013-03-20 15:05:00,
2013-03-20 10:10:00,21.3,9.2,30.44,NNW,336,0.0,6.0,59,0.00,,---,0.00,454.00,VWS V14.00,2013-03-20 15:10:00,
2013-03-20 10:15:00,21.2,8.7,30.44,NNW,339,0.0,4.0,58,0.00,,---,0.00,446.00,VWS V14.00,2013-03-20 15:15:00,
2013-03-20 10:20:00,20.9,8.1,30.44,NNW,339,0.0,3.0,57,0.00,,---,0.00,153.00,VWS V14.00,2013-03-20 15:20:00,
2013-03-20 10:25:00,21.0,8.9,30.45,NW,313,1.0,2.0,59,0.00,,---,0.00,125.00,VWS V14.00,2013-03-20 15:25:00,
2013-03-20 10:30:00,21.4,8.6,30.44,NNW,333,0.0,4.0,57,0.00,,---,0.00,513.00,VWS V14.00,2013-03-20 15:30:00,
2013-03-20 10:35:00,21.7,8.8,30.45,NNW,333,1.0,7.0,57,0.00,,---,0.00,526.00,VWS V14.00,2013-03-20 15:35:00,
2013-03-20 10:41:00,22.2,9.3,30.45,NW,309,0.0,0.0,57,0.00,,---,0.00,540.00,VWS V14.00,2013-03-20 15:41:00,
2013-03-20 10:46:00,22.6,9.3,30.45,NW,310,0.0,0.0,56,0.00,,---,0.00,554.00,VWS V14.00,2013-03-20 15:46:00,
2013-03-20 10:51:00,23.0,9.7,30.45,NNW,327,0.0,0.0,56,0.00,,---,0.00,568.00,VWS V14.00,2013-03-20 15:51:00,
2013-03-20 10:56:00,23.4,10.4,30.45,NNW,342,0.0,0.0,57,0.00,,---,0.00,578.00,VWS V14.00,2013-03-20 15:56:00,
2013-03-20 11:01:00,23.8,9.6,30.45,NNW,331,0.0,1.0,54,0.00,,---,0.00,591.00,VWS V14.00,2013-03-20 16:01:00,
2013-03-20 11:07:00,24.0,10.2,30.45,NNW,333,0.0,0.0,55,0.00,,---,0.00,605.00,VWS V14.00,2013-03-20 16:07:00,
2013-03-20 11:12:00,24.4,10.1,30.44,NNW,340,0.0,2.0,54,0.00,,---,0.00,615.00,VWS V14.00,2013-03-20 16:12:00,
2013-03-20 11:17:00,24.7,10.0,30.44,NNW,329,0.0,1.0,53,0.00,,---,0.00,628.00,VWS V14.00,2013-03-20 16:17:00,
2013-03-20 11:22:00,24.8,9.7,30.44,NW,315,0.0,2.0,52,0.00,,---,0.00,636.00,VWS V14.00,2013-03-20 16:22:00,
2013-03-20 11:27:00,24.9,9.4,30.44,WNW,302,1.0,1.0,51,0.00,,---,0.00,645.00,VWS V14.00,2013-03-20 16:27:00,
2013-03-20 11:32:00,25.4,10.2,30.44,NW,314,0.0,1.0,52,0.00,,---,0.00,657.00,VWS V14.00,2013-03-20 16:32:00,
2013-03-20 11:37:00,25.8,10.2,30.44,NW,323,0.0,0.0,51,0.00,,---,0.00,668.00,VWS V14.00,2013-03-20 16:37:00,
2013-03-20 11:42:00,26.1,10.0,30.44,NW,326,0.0,1.0,50,0.00,,---,0.00,679.00,VWS V14.00,2013-03-20 16:42:00,
2013-03-20 11:47:00,26.1,9.6,30.43,NNW,338,0.0,1.0,49,0.00,,---,0.00,687.00,VWS V14.00,2013-03-20 16:47:00,
2013-03-20 11:53:00,26.1,10.0,30.43,NW,304,2.0,2.0,50,0.00,,---,0.00,696.00,VWS V14.00,2013-03-20 16:53:00,
2013-03-20 11:58:00,26.2,9.7,30.43,NNW,329,0.0,1.0,49,0.00,,---,0.00,703.00,VWS V14.00,2013-03-20 16:58:00,
2013-03-20 12:03:00,26.4,9.8,30.43,NW,326,1.0,1.0,49,0.00,,---,0.00,712.00,VWS V14.00,2013-03-20 17:03:00,
2013-03-20 12:08:00,26.7,9.7,30.42,NW,317,0.0,1.0,48,0.00,,---,0.00,715.00,VWS V14.00,2013-03-20 17:08:00,
2013-03-20 12:13:00,27.1,10.5,30.42,NW,307,0.0,1.0,49,0.00,,---,0.00,728.00,VWS V14.00,2013-03-20 17:13:00,
2013-03-20 12:18:00,27.5,10.4,30.42,NW,310,0.0,2.0,48,0.00,,---,0.00,731.00,VWS V14.00,2013-03-20 17:18:00,
2013-03-20 12:23:00,28.0,10.4,30.42,NW,313,0.0,1.0,47,0.00,,---,0.00,740.00,VWS V14.00,2013-03-20 17:23:00,
2013-03-20 12:28:00,28.3,10.7,30.42,NNW,338,0.0,3.0,47,0.00,,---,0.00,747.00,VWS V14.00,2013-03-20 17:28:00,
2013-03-20 12:33:00,28.3,10.2,30.41,NNW,336,0.0,1.0,46,0.00,,---,0.00,751.00,VWS V14.00,2013-03-20 17:33:00,
2013-03-20 12:39:00,28.5,9.9,30.41,NW,306,0.0,2.0,45,0.00,,---,0.00,780.00,VWS V14.00,2013-03-20 17:39:00,
2013-03-20 12:44:00,28.5,10.4,30.41,NW,326,0.0,1.0,46,0.00,,---,0.00,763.00,VWS V14.00,2013-03-20 17:44:00,
2013-03-20 12:49:00,28.8,10.1,30.40,NW,316,0.0,1.0,45,0.00,,---,0.00,766.00,VWS V14.00,2013-03-20 17:49:00,
2013-03-20 12:54:00,28.9,9.7,30.40,WNW,301,0.0,0.0,44,0.00,,---,0.00,770.00,VWS V14.00,2013-03-20 17:54:00,
2013-03-20 12:59:00,29.2,10.5,30.40,NW,324,1.0,1.0,45,0.00,,---,0.00,775.00,VWS V14.00,2013-03-20 17:59:00,
2013-03-20 13:04:00,29.3,9.6,30.39,NW,317,0.0,1.0,43,0.00,,---,0.00,777.00,VWS V14.00,2013-03-20 18:04:00,
2013-03-20 13:09:00,29.2,9.5,30.39,NNW,344,0.0,2.0,43,0.00,,---,0.00,777.00,VWS V14.00,2013-03-20 18:09:00,
2013-03-20 13:14:00,29.4,10.7,30.38,NNW,336,0.0,1.0,45,0.00,,---,0.00,780.00,VWS V14.00,2013-03-20 18:14:00,
2013-03-20 13:19:00,29.7,11.0,30.38,NW,325,0.0,1.0,45,0.00,,---,0.00,782.00,VWS V14.00,2013-03-20 18:19:00,
2013-03-20 13:24:00,29.9,10.1,30.38,NW,324,0.0,1.0,43,0.00,,---,0.00,782.00,VWS V14.00,2013-03-20 18:24:00,
2013-03-20 13:29:00,30.1,10.3,30.38,NNW,332,0.0,1.0,43,0.00,,---,0.00,784.00,VWS V14.00,2013-03-20 18:29:00,
2013-03-20 13:34:00,30.4,11.6,30.37,NNW,332,0.0,1.0,45,0.00,,---,0.00,724.00,VWS V14.00,2013-03-20 18:34:00,
2013-03-20 13:39:00,30.7,11.4,30.37,NNW,330,0.0,1.0,44,0.00,,---,0.00,786.00,VWS V14.00,2013-03-20 18:39:00,
2013-03-20 13:44:00,30.4,10.1,30.37,NNW,330,0.0,2.0,42,0.00,,---,0.00,784.00,VWS V14.00,2013-03-20 18:44:00,
2013-03-20 13:49:00,30.3,10.5,30.37,NW,321,0.0,1.0,43,0.00,,---,0.00,782.00,VWS V14.00,2013-03-20 18:49:00,
2013-03-20 13:54:00,31.0,12.2,30.36,NW,319,0.0,0.0,45,0.00,,---,0.00,782.00,VWS V14.00,2013-03-20 18:54:00,
2013-03-20 13:59:00,31.2,11.3,30.36,NW,317,0.0,1.0,43,0.00,,---,0.00,782.00,VWS V14.00,2013-03-20 18:59:00,
2013-03-20 14:04:00,31.3,10.9,30.35,NW,319,0.0,0.0,42,0.00,,---,0.00,782.00,VWS V14.00,2013-03-20 19:04:00,
2013-03-20 14:09:00,31.5,11.1,30.35,NW,318,0.0,1.0,42,0.00,,---,0.00,779.00,VWS V14.00,2013-03-20 19:09:00,
2013-03-20 14:15:00,31.9,12.0,30.35,WNW,282,0.0,0.0,43,0.00,,---,0.00,775.00,VWS V14.00,2013-03-20 19:15:00,
2013-03-20 14:20:00,32.5,11.4,30.34,WNW,282,0.0,1.0,41,0.00,,---,0.00,773.00,VWS V14.00,2013-03-20 19:20:00,
2013-03-20 14:25:00,32.6,11.5,30.34,NW,320,0.0,1.0,41,0.00,,---,0.00,770.00,VWS V14.00,2013-03-20 19:25:00,
2013-03-20 14:30:00,32.2,11.2,30.33,NW,314,0.0,1.0,41,0.00,,---,0.00,763.00,VWS V14.00,2013-03-20 19:30:00,
2013-03-20 14:35:00,32.1,11.1,30.33,NNW,331,0.0,2.0,41,0.00,,---,0.00,761.00,VWS V14.00,2013-03-20 19:35:00,
2013-03-20 14:40:00,32.3,11.8,30.33,NW,305,1.0,1.0,42,0.00,,---,0.00,754.00,VWS V14.00,2013-03-20 19:40:00,
2013-03-20 14:45:00,32.4,11.3,30.32,NW,325,0.0,1.0,41,0.00,,---,0.00,749.00,VWS V14.00,2013-03-20 19:45:00,
2013-03-20 14:50:00,32.6,12.6,30.31,NNW,327,0.0,1.0,43,0.00,,---,0.00,744.00,VWS V14.00,2013-03-20 19:50:00,
2013-03-20 14:55:00,32.8,12.2,30.31,NNW,340,0.0,1.0,42,0.00,,---,0.00,735.00,VWS V14.00,2013-03-20 19:55:00,
2013-03-20 15:00:00,33.1,12.5,30.31,NW,323,0.0,1.0,42,0.00,,---,0.00,729.00,VWS V14.00,2013-03-20 20:00:00,
2013-03-20 15:05:00,33.1,12.0,30.30,NNW,329,0.0,1.0,41,0.00,,---,0.00,722.00,VWS V14.00,2013-03-20 20:05:00,
2013-03-20 15:10:00,33.1,12.5,30.30,NW,325,0.0,1.0,42,0.00,,---,0.00,715.00,VWS V14.00,2013-03-20 20:10:00,
2013-03-20 15:15:00,33.5,12.9,30.30,NW,323,0.0,1.0,42,0.00,,---,0.00,708.00,VWS V14.00,2013-03-20 20:15:00,
2013-03-20 15:20:00,33.7,12.5,30.29,NNW,331,0.0,1.0,41,0.00,,---,0.00,700.00,VWS V14.00,2013-03-20 20:20:00,
2013-03-20 15:25:00,33.7,12.5,30.29,North,355,0.0,1.0,41,0.00,,---,0.00,689.00,VWS V14.00,2013-03-20 20:25:00,
2013-03-20 15:30:00,33.7,13.1,30.29,NNW,336,0.0,1.0,42,0.00,,---,0.00,680.00,VWS V14.00,2013-03-20 20:30:00,
2013-03-20 15:35:00,34.0,13.9,30.29,NW,315,0.0,1.0,43,0.00,,---,0.00,671.00,VWS V14.00,2013-03-20 20:35:00,
2013-03-20 15:40:00,34.2,12.4,30.28,NW,310,0.0,1.0,40,0.00,,---,0.00,664.00,VWS V14.00,2013-03-20 20:40:00,
2013-03-20 15:45:00,34.3,14.1,30.28,NW,325,0.0,1.0,43,0.00,,---,0.00,656.00,VWS V14.00,2013-03-20 20:45:00,
2013-03-20 15:50:00,34.7,13.4,30.28,NNW,333,1.0,1.0,41,0.00,,---,0.00,640.00,VWS V14.00,2013-03-20 20:50:00,
2013-03-20 15:55:00,34.6,13.9,30.28,NNW,334,0.0,2.0,42,0.00,,---,0.00,633.00,VWS V14.00,2013-03-20 20:55:00,
2013-03-20 16:00:00,35.0,13.7,30.28,NW,321,0.0,2.0,41,0.00,,---,0.00,621.00,VWS V14.00,2013-03-20 21:00:00,
2013-03-20 16:05:00,34.8,12.9,30.27,NNW,327,0.0,1.0,40,0.00,,---,0.00,610.00,VWS V14.00,2013-03-20 21:05:00,
2013-03-20 16:10:00,34.8,13.5,30.27,NW,326,0.0,1.0,41,0.00,,---,0.00,596.00,VWS V14.00,2013-03-20 21:10:00,
2013-03-20 16:15:00,34.9,13.0,30.27,NW,316,0.0,1.0,40,0.00,,---,0.00,587.00,VWS V14.00,2013-03-20 21:15:00,
2013-03-20 16:20:00,34.7,13.4,30.26,NW,315,1.0,1.0,41,0.00,,---,0.00,577.00,VWS V14.00,2013-03-20 21:20:00,
2013-03-20 16:25:00,34.7,13.4,30.26,NNW,340,0.0,1.0,41,0.00,,---,0.00,563.00,VWS V14.00,2013-03-20 21:25:00,
2013-03-20 16:30:00,34.6,13.3,30.26,NNW,330,0.0,1.0,41,0.00,,---,0.00,548.00,VWS V14.00,2013-03-20 21:30:00,
2013-03-20 16:35:00,34.6,13.3,30.26,NNW,330,0.0,0.0,41,0.00,,---,0.00,534.00,VWS V14.00,2013-03-20 21:35:00,
2013-03-20 16:40:00,34.7,13.4,30.25,NNW,336,0.0,0.0,41,0.00,,---,0.00,520.00,VWS V14.00,2013-03-20 21:40:00,
2013-03-20 16:45:00,34.9,14.1,30.25,NW,306,1.0,1.0,42,0.00,,---,0.00,510.00,VWS V14.00,2013-03-20 21:45:00,
2013-03-20 16:50:00,34.8,14.1,30.25,NNW,327,0.0,1.0,42,0.00,,---,0.00,494.00,VWS V14.00,2013-03-20 21:50:00,
2013-03-20 16:55:00,34.9,14.1,30.25,NNW,328,0.0,0.0,42,0.00,,---,0.00,480.00,VWS V14.00,2013-03-20 21:55:00,
2013-03-20 17:00:00,35.0,14.8,30.25,NW,317,1.0,1.0,43,0.00,,---,0.00,462.00,VWS V14.00,2013-03-20 22:00:00,
2013-03-20 17:05:00,35.1,14.3,30.25,NNW,328,1.0,1.0,42,0.00,,---,0.00,450.00,VWS V14.00,2013-03-20 22:05:00,
2013-03-20 17:10:00,35.1,13.8,30.24,NW,323,1.0,1.0,41,0.00,,---,0.00,432.00,VWS V14.00,2013-03-20 22:10:00,
2013-03-20 17:15:00,35.0,13.7,30.24,NW,323,0.0,1.0,41,0.00,,---,0.00,418.00,VWS V14.00,2013-03-20 22:15:00,
2013-03-20 17:20:00,35.0,14.2,30.24,North,360,0.0,1.0,42,0.00,,---,0.00,403.00,VWS V14.00,2013-03-20 22:20:00,
2013-03-20 17:25:00,34.8,14.1,30.24,North,360,0.0,0.0,42,0.00,,---,0.00,388.00,VWS V14.00,2013-03-20 22:25:00,
2013-03-20 17:30:00,34.7,14.0,30.23,NW,323,0.0,1.0,42,0.00,,---,0.00,373.00,VWS V14.00,2013-03-20 22:30:00,
2013-03-20 17:35:00,34.6,13.9,30.23,NNW,343,0.0,1.0,42,0.00,,---,0.00,199.00,VWS V14.00,2013-03-20 22:35:00,
2013-03-20 17:40:00,34.6,14.4,30.23,NNW,334,0.0,0.0,43,0.00,,---,0.00,265.00,VWS V14.00,2013-03-20 22:40:00,
2013-03-20 17:45:00,34.6,14.4,30.23,NNW,334,0.0,1.0,43,0.00,,---,0.00,271.00,VWS V14.00,2013-03-20 22:45:00,
2013-03-20 17:50:00,34.6,14.9,30.23,NNW,334,0.0,1.0,44,0.00,,---,0.00,227.00,VWS V14.00,2013-03-20 22:50:00,
2013-03-20 17:55:00,34.7,15.0,30.23,NNW,335,0.0,1.0,44,0.00,,---,0.00,193.00,VWS V14.00,2013-03-20 22:55:00,
2013-03-20 18:00:00,34.8,14.6,30.23,North,355,0.0,3.0,43,0.00,,---,0.00,202.00,VWS V14.00,2013-03-20 23:00:00,
2013-03-20 18:05:00,34.7,14.5,30.22,NNW,340,0.0,1.0,43,0.00,,---,0.00,211.00,VWS V14.00,2013-03-20 23:05:00,
2013-03-20 18:10:00,34.6,14.4,30.22,NNW,344,0.0,2.0,43,0.00,,---,0.00,142.00,VWS V14.00,2013-03-20 23:10:00,
2013-03-20 18:15:00,34.3,14.1,30.22,North,355,0.0,1.0,43,0.00,,---,0.00,62.00,VWS V14.00,2013-03-20 23:15:00,
2013-03-20 18:20:00,34.1,14.5,30.22,North,355,0.0,2.0,44,0.00,,---,0.00,88.00,VWS V14.00,2013-03-20 23:20:00,
2013-03-20 18:25:00,34.0,14.4,30.22,North,355,0.0,1.0,44,0.00,,---,0.00,97.00,VWS V14.00,2013-03-20 23:25:00,
2013-03-20 18:30:00,33.9,14.8,30.22,North,5,0.0,1.0,45,0.00,,---,0.00,74.00,VWS V14.00,2013-03-20 23:30:00,
2013-03-20 18:35:00,33.8,14.7,30.22,North,5,0.0,1.0,45,0.00,,---,0.00,60.00,VWS V14.00,2013-03-20 23:35:00,
2013-03-20 18:40:00,33.7,15.1,30.21,North,360,0.0,0.0,46,0.00,,---,0.00,58.00,VWS V14.00,2013-03-20 23:40:00,
2013-03-20 18:45:00,33.5,14.9,30.22,North,355,0.0,1.0,46,0.00,,---,0.00,40.00,VWS V14.00,2013-03-20 23:45:00,
2013-03-20 18:50:00,33.3,14.8,30.21,North,355,0.0,0.0,46,0.00,,---,0.00,25.00,VWS V14.00,2013-03-20 23:50:00,
2013-03-20 18:55:00,33.1,14.6,30.21,North,355,0.0,1.0,46,0.00,,---,0.00,23.00,VWS V14.00,2013-03-20 23:55:00,
2013-03-20 19:00:00,32.9,14.9,30.20,North,355,0.0,1.0,47,0.00,,---,0.00,21.00,VWS V14.00,2013-03-21 00:00:00,
2013-03-20 19:05:00,32.8,14.8,30.20,North,355,1.0,1.0,47,0.00,,---,0.00,19.00,VWS V14.00,2013-03-21 00:05:00,
2013-03-20 19:10:00,32.7,14.7,30.20,North,355,0.0,1.0,47,0.00,,---,0.00,19.00,VWS V14.00,2013-03-21 00:10:00,
2013-03-20 19:15:00,32.7,14.7,30.20,North,355,0.0,0.0,47,0.00,,---,0.00,19.00,VWS V14.00,2013-03-21 00:15:00,
2013-03-20 19:20:00,32.0,15.0,30.21,North,360,2.0,2.0,49,0.00,,---,0.00,11.00,VWS V14.00,2013-03-21 00:20:00,
2013-03-20 19:25:00,31.8,14.8,30.20,North,360,0.0,1.0,49,0.00,,---,0.00,7.00,VWS V14.00,2013-03-21 00:25:00,
2013-03-20 19:30:00,31.6,15.1,30.21,North,360,0.0,0.0,50,0.00,,---,0.00,5.00,VWS V14.00,2013-03-21 00:30:00,
2013-03-20 19:35:00,31.4,14.9,30.21,North,360,0.0,0.0,50,0.00,,---,0.00,0.00,VWS V14.00,2013-03-21 00:35:00,
2013-03-20 19:40:00,31.2,14.7,30.21,North,360,0.0,0.0,50,0.00,,---,0.00,0.00,VWS V14.00,2013-03-21 00:40:00,
2013-03-20 19:45:00,31.0,14.6,30.21,North,360,0.0,0.0,50,0.00,,---,0.00,0.00,VWS V14.00,2013-03-21 00:45:00,
2013-03-20 19:50:00,30.8,14.4,30.21,North,360,0.0,0.0,50,0.00,,---,0.00,0.00,VWS V14.00,2013-03-21 00:50:00,
2013-03-20 19:55:00,30.6,14.6,30.21,North,360,0.0,0.0,51,0.00,,---,0.00,0.00,VWS V14.00,2013-03-21 00:55:00,
2013-03-20 20:00:00,30.4,14.4,30.21,North,360,0.0,0.0,51,0.00,,---,0.00,0.00,VWS V14.00,2013-03-21 01:00:00,
2013-03-20 20:05:00,30.3,14.8,30.21,North,360,0.0,0.0,52,0.00,,---,0.00,0.00,VWS V14.00,2013-03-21 01:05:00,
2013-03-20 20:10:00,30.1,14.6,30.21,North,360,0.0,0.0,52,0.00,,---,0.00,0.00,VWS V14.00,2013-03-21 01:10:00,
2013-03-20 20:15:00,29.9,14.9,30.21,North,360,0.0,0.0,53,0.00,,---,0.00,0.00,VWS V14.00,2013-03-21 01:15:00,
2013-03-20 20:20:00,29.7,14.7,30.21,North,360,0.0,0.0,53,0.00,,---,0.00,0.00,VWS V14.00,2013-03-21 01:20:00,
2013-03-20 20:25:00,29.6,14.6,30.21,North,360,0.0,0.0,53,0.00,,---,0.00,0.00,VWS V14.00,2013-03-21 01:25:00,
2013-03-20 20:30:00,29.4,14.8,30.20,North,360,0.0,0.0,54,0.00,,---,0.00,0.00,VWS V14.00,2013-03-21 01:30:00,
2013-03-20 20:35:00,29.3,14.7,30.21,North,360,0.0,0.0,54,0.00,,---,0.00,0.00,VWS V14.00,2013-03-21 01:35:00,
2013-03-20 20:40:00,29.0,14.4,30.21,North,360,0.0,0.0,54,0.00,,---,0.00,0.00,VWS V14.00,2013-03-21 01:40:00,
2013-03-20 20:45:00,28.9,14.4,30.20,North,360,0.0,0.0,54,0.00,,---,0.00,0.00,VWS V14.00,2013-03-21 01:45:00,
2013-03-20 20:50:00,28.7,14.6,30.20,North,360,0.0,0.0,55,0.00,,---,0.00,0.00,VWS V14.00,2013-03-21 01:50:00,
2013-03-20 20:55:00,28.5,14.4,30.20,North,360,0.0,0.0,55,0.00,,---,0.00,0.00,VWS V14.00,2013-03-21 01:55:00,
2013-03-20 21:00:00,28.4,14.7,30.20,North,360,0.0,0.0,56,0.00,,---,0.00,0.00,VWS V14.00,2013-03-21 02:00:00,
2013-03-20 21:05:00,28.3,15.0,30.20,North,360,0.0,0.0,57,0.00,,---,0.00,0.00,VWS V14.00,2013-03-21 02:05:00,
2013-03-20 21:10:00,28.2,14.9,30.20,North,360,0.0,0.0,57,0.00,,---,0.00,0.00,VWS V14.00,2013-03-21 02:10:00,
2013-03-20 21:15:00,28.0,15.1,30.19,North,360,0.0,0.0,58,0.00,,---,0.00,0.00,VWS V14.00,2013-03-21 02:15:00,
2013-03-20 21:20:00,27.8,15.4,30.20,North,360,0.0,0.0,59,0.00,,---,0.00,0.00,VWS V14.00,2013-03-21 02:20:00,
2013-03-20 21:25:00,27.6,15.6,30.20,North,360,0.0,0.0,60,0.00,,---,0.00,0.00,VWS V14.00,2013-03-21 02:25:00,
2013-03-20 21:30:00,27.4,15.4,30.20,North,360,0.0,0.0,60,0.00,,---,0.00,0.00,VWS V14.00,2013-03-21 02:30:00,
2013-03-20 21:35:00,27.2,15.2,30.20,North,360,0.0,0.0,60,0.00,,---,0.00,0.00,VWS V14.00,2013-03-21 02:35:00,
2013-03-20 21:40:00,27.0,15.4,30.20,North,360,0.0,0.0,61,0.00,,---,0.00,0.00,VWS V14.00,2013-03-21 02:40:00,
2013-03-20 21:45:00,26.8,15.5,30.20,North,360,0.0,0.0,62,0.00,,---,0.00,0.00,VWS V14.00,2013-03-21 02:45:00,
2013-03-20 21:50:00,26.6,15.4,30.19,North,360,0.0,0.0,62,0.00,,---,0.00,0.00,VWS V14.00,2013-03-21 02:50:00,
2013-03-20 21:55:00,26.5,15.6,30.19,North,360,0.0,0.0,63,0.00,,---,0.00,0.00,VWS V14.00,2013-03-21 02:55:00,
2013-03-20 22:00:00,26.4,15.5,30.19,North,360,0.0,0.0,63,0.00,,---,0.00,0.00,VWS V14.00,2013-03-21 03:00:00,
2013-03-20 22:05:00,26.3,15.4,30.19,North,360,0.0,0.0,63,0.00,,---,0.00,0.00,VWS V14.00,2013-03-21 03:05:00,
2013-03-20 22:10:00,26.1,15.6,30.18,North,360,0.0,1.0,64,0.00,,---,0.00,0.00,VWS V14.00,2013-03-21 03:10:00,
2013-03-20 22:15:00,26.0,15.5,30.18,North,360,0.0,1.0,64,0.00,,---,0.00,0.00,VWS V14.00,2013-03-21 03:15:00,
2013-03-20 22:20:00,25.8,15.7,30.18,North,360,0.0,1.0,65,0.00,,---,0.00,0.00,VWS V14.00,2013-03-21 03:20:00,
2013-03-20 22:25:00,25.8,15.7,30.18,North,360,0.0,0.0,65,0.00,,---,0.00,0.00,VWS V14.00,2013-03-21 03:25:00,
2013-03-20 22:30:00,25.8,15.7,30.17,North,360,0.0,0.0,65,0.00,,---,0.00,0.00,VWS V14.00,2013-03-21 03:30:00,
2013-03-20 22:35:00,25.8,15.7,30.17,North,360,0.0,0.0,65,0.00,,---,0.00,0.00,VWS V14.00,2013-03-21 03:35:00,
2013-03-20 22:40:00,25.8,15.7,30.17,North,360,0.0,0.0,65,0.00,,---,0.00,0.00,VWS V14.00,2013-03-21 03:40:00,
2013-03-20 22:45:00,25.3,15.2,30.17,North,360,0.0,0.0,65,0.00,,---,0.00,0.00,VWS V14.00,2013-03-21 03:45:00,
2013-03-20 22:50:00,25.2,15.8,30.17,North,360,0.0,1.0,67,0.00,,---,0.00,0.00,VWS V14.00,2013-03-21 03:50:00,
2013-03-20 22:55:00,25.1,15.7,30.17,North,360,0.0,0.0,67,0.00,,---,0.00,0.00,VWS V14.00,2013-03-21 03:55:00,
2013-03-20 23:00:00,25.0,15.9,30.17,North,360,0.0,0.0,68,0.00,,---,0.00,0.00,VWS V14.00,2013-03-21 04:00:00,
2013-03-20 23:01:00,25.0,15.9,30.17,North,360,0.0,0.0,68,0.00,,---,0.00,0.00,VWS V14.00,2013-03-21 04:01:00,
2013-03-20 23:06:00,24.9,15.9,30.17,North,360,0.0,0.0,68,0.00,,---,0.00,0.00,VWS V14.00,2013-03-21 04:06:00,
2013-03-20 23:11:00,24.8,15.8,30.17,North,360,0.0,0.0,68,0.00,,---,0.00,0.00,VWS V14.00,2013-03-21 04:11:00,
2013-03-20 23:16:00,24.7,15.7,30.17,North,360,0.0,0.0,68,0.00,,---,0.00,0.00,VWS V14.00,2013-03-21 04:16:00,
2013-03-20 23:21:00,24.7,15.7,30.17,North,360,0.0,0.0,68,0.00,,---,0.00,0.00,VWS V14.00,2013-03-21 04:21:00,
2013-03-20 23:26:00,24.6,15.9,30.17,North,360,0.0,0.0,69,0.00,,---,0.00,0.00,VWS V14.00,2013-03-21 04:26:00,
2013-03-20 23:31:00,24.5,15.8,30.17,North,360,0.0,0.0,69,0.00,,---,0.00,0.00,VWS V14.00,2013-03-21 04:31:00,
2013-03-20 23:36:00,24.5,15.8,30.17,North,360,0.0,0.0,69,0.00,,---,0.00,0.00,VWS V14.00,2013-03-21 04:36:00,
2013-03-20 23:41:00,24.5,15.8,30.17,North,360,0.0,0.0,69,0.00,,---,0.00,0.00,VWS V14.00,2013-03-21 04:41:00,
2013-03-20 23:46:00,24.5,15.8,30.17,North,360,0.0,0.0,69,0.00,,---,0.00,0.00,VWS V14.00,2013-03-21 04:46:00,
2013-03-20 23:51:00,24.5,15.8,30.16,North,360,0.0,0.0,69,0.00,,---,0.00,0.00,VWS V14.00,2013-03-21 04:51:00,
2013-03-20 23:57:00,24.5,15.8,30.16,North,360,0.0,0.0,69,0.00,,---,0.00,0.00,VWS V14.00,2013-03-21 04:57:00,